Llagostera (Gironès)





Hora UTC 08:25
Temperatura 21.7 ºC
Humitat 92.0 %
Pressió 1014.5 hPa
Pluja 0.2 mm
Velocitat vent 1.6 km/h
Direcció vent

Dades diàries 2024-06-18



Hora UTC (hivern +1h; estiu +2h)
Temperatura (ºC) Humitat (%) Pressió (hPa) Velocitat vent (km/h) Precipitació (mm)
Hora UTC Aire Humitat Pressió Vel. Dir. Vel. Max Dir. Intent. màx 5 min.
00:05 14.9 95.0 1015.9 0.0 0.0 0.0
00:15 15.2 96.0 1015.7 0.0 4.8 0.0
00:25 14.8 95.0 1015.6 0.0 4.8 0.0
00:35 14.8 95.0 1015.3 0.0 4.8 0.0
00:45 14.8 95.0 1015.0 0.0 4.8 0.0
00:55 14.8 95.0 1015.0 0.0 4.8 0.0
01:05 14.7 95.0 1014.9 0.0 4.8 0.0
01:15 14.5 95.0 1014.9 0.0 4.8 0.0
01:25 14.4 95.0 1014.9 0.0 4.8 0.0
01:35 14.7 96.0 1014.8 0.0 4.8 0.0
01:45 15.0 96.0 1014.7 0.0 4.8 0.0
01:55 15.2 96.0 1014.6 0.0 4.8 0.0
02:05 15.6 96.0 1014.5 0.0 4.8 0.0
02:15 15.7 96.0 1014.4 0.0 4.8 0.0
02:25 16.0 96.0 1014.3 0.0 4.8 0.0
02:35 16.1 96.0 1014.2 0.0 4.8 0.0
02:45 16.5 96.0 1014.2 0.0 4.8 0.0
02:55 16.7 96.0 1014.2 0.0 4.8 0.0
03:05 16.7 96.0 1014.1 0.0 4.8 0.0
03:15 16.8 96.0 1014.2 0.0 4.8 0.0
03:25 16.7 96.0 1014.1 0.0 4.8 0.0
03:35 16.4 96.0 1014.2 0.0 4.8 0.0
03:45 16.1 96.0 1013.9 0.0 4.8 0.0
03:55 15.8 96.0 1013.9 0.0 4.8 0.0
04:05 15.6 96.0 1014.0 0.0 4.8 0.0
04:15 15.6 96.0 1014.0 0.0 4.8 0.0
04:25 15.8 97.0 1013.9 0.0 4.8 0.0
04:35 16.1 97.0 1013.9 0.0 6.4 0.0
04:45 16.2 97.0 1013.8 3.2 6.4 0.0
04:55 16.2 97.0 1013.8 3.2 6.4 0.0
05:05 16.2 97.0 1013.8 0.0 6.4 0.0
05:15 16.2 97.0 1013.8 0.0 6.4 0.2
05:25 16.3 97.0 1014.0 0.0 6.4 0.0
05:35 16.3 97.0 1014.1 0.0 6.4 0.0
05:45 16.4 97.0 1014.2 0.0 6.4 0.0
05:55 16.5 97.0 1014.2 0.0 6.4 0.0
06:05 16.6 97.0 1014.4 0.0 6.4 0.0
06:15 16.7 97.0 1014.5 0.0 6.4 0.0
06:25 17.1 97.0 1014.7 3.2 6.4 0.0
06:35 17.1 97.0 1014.8 8.0 8.0 0.0
06:45 17.0 97.0 1014.8 4.8 8.0 0.0
06:55 17.1 97.0 1014.9 3.2 11.3 0.0
07:05 17.7 97.0 1014.9 4.8 11.3 0.0
07:15 17.7 97.0 1014.8 4.8 11.3 0.0
07:25 18.3 97.0 1014.6 4.8 11.3 0.0
07:35 18.8 97.0 1014.6 8.0 12.9 0.0
07:45 18.9 97.0 1014.4 9.7 12.9 0.0
07:55 19.4 97.0 1014.4 6.4 12.9 0.0
08:05 20.1 96.0 1014.4 6.4 12.9 0.0
08:15 20.8 95.0 1014.4 6.4 12.9 0.0
08:25 21.7 92.0 1014.5 1.6 12.9 0.0
Màxima 21.7 97.0 1015.9 9.7 12.9 0.2
Mínima 14.4 92.0 1013.8
Total 0.2